Location: Stonelick Lake State Park
(39.2170°N, 84.0850°W)
Time: 03:06:25
(UTC-05:00)

Amateur Radio Satellites - All Passes

Search period start: 24 November 2014 02:36
Search period end: 25 November 2014 02:36
Location: Stonelick Lake State Park, 39.2170°N, 84.0850°W

Satellite Date Start Highest point End Downlink Frequencies (MHz)
Time Altitude Azimuth
Oscar 19 24 Nov 02:41:25 02:46:27 54° 288° (WNW) 02:51:28 437.125/150
YUBILEINY 24 Nov 02:42:35 02:50:57 51° 89° (E) 02:59:19 435.215
ISS 24 Nov 02:49:08 02:50:49 13° 344° (NNW) 02:52:29 145.825
ITUPSAT 1 24 Nov 02:53:05 02:54:08 11° 270° (W) 02:55:12 437.325
KKS-1 24 Nov 02:59:37 03:03:42 35° 262° (W) 03:07:48 437.445
RS-15 24 Nov 03:03:51 03:14:45 57° 248° (WSW) 03:26:07 29.354- 29.394
JUGNU 24 Nov 03:17:46 03:19:02 11° 184° (S) 03:20:17 437.505
SRMSAT 24 Nov 03:24:14 03:25:27 11° 176° (S) 03:26:41 437.500
SO-50 24 Nov 03:26:10 03:28:28 14° 108° (ESE) 03:30:48 436.795
ITAMSAT 1 24 Nov 03:29:22 03:34:22 50° 289° (WNW) 03:39:20 435.822/435.867
Gurwin Techsat 1B 24 Nov 03:47:59 03:53:13 60° 287° (WNW) 03:58:25 435.225
MOZHAYETS 4 24 Nov 03:48:38 03:51:53 19° 66° (ENE) 03:55:09
STARS 24 Nov 04:03:24 04:04:44 11° 269° (W) 04:06:04 437.465
HORYU 2 24 Nov 04:07:24 04:11:54 75° 285° (WNW) 04:16:23 437.375
AO-7 24 Nov 04:28:31 04:36:35 50° 101° (ESE) 04:44:36 29.400- 29.500
YUBILEINY 24 Nov 04:40:11 04:47:58 34° 288° (WNW) 04:55:47 435.215
JAS-2 24 Nov 04:45:44 04:51:02 22° 89° (E) 04:55:52 435.910
STRAND 1 24 Nov 05:03:58 05:04:43 10° 59° (ENE) 05:05:28 437.568
SO-50 24 Nov 05:04:00 05:08:26 59° 304° (NW) 05:13:03 436.795
BEESAT 3 24 Nov 05:04:59 05:08:09 20° 47° (NE) 05:11:17 437.485
PCSat 24 Nov 05:11:44 05:16:47 38° 55° (NE) 05:21:49 145.827
SRMSAT 24 Nov 05:13:19 05:13:41 10° 186° (S) 05:14:04 437.500
BEESAT 2 24 Nov 05:18:22 05:21:51 24° 49° (NE) 05:25:18 435.950
CUBESAT XI-V 24 Nov 05:24:23 05:27:01 15° 64° (ENE) 05:29:39 437.345
MOZHAYETS 4 24 Nov 05:24:30 05:28:48 40° 262° (W) 05:33:09
AIST 2 24 Nov 05:43:01 05:46:28 23° 48° (NE) 05:49:53 435.215
PRISM 24 Nov 05:47:49 05:51:59 72° 75° (ENE) 05:56:13 437.425
Cubesat XI-IV 24 Nov 05:52:12 05:55:48 18° 93° (E) 05:59:24 437.490
ISS 24 Nov 06:03:38 06:06:17 22° 25° (NNE) 06:08:55 145.825
AO-7 24 Nov 06:21:40 06:29:06 38° 299° (WNW) 06:36:32 29.400- 29.500
O/OREOS (USA 219) 24 Nov 06:24:35 06:28:52 45° 106° (ESE) 06:33:09 437.305
JAS-2 24 Nov 06:29:34 06:36:39 61° 289° (WNW) 06:42:53 435.910
CUTE-I 24 Nov 06:33:07 06:38:12 44° 99° (E) 06:43:14 437.470
STRAND 1 24 Nov 06:37:54 06:43:03 84° 75° (ENE) 06:48:14 437.568
BEESAT 3 24 Nov 06:42:36 06:46:33 40° 245° (WSW) 06:50:26 437.485
PCSat 24 Nov 06:55:26 07:00:02 29° 252° (WSW) 07:04:36 145.827
BEESAT 2 24 Nov 06:56:25 07:00:10 32° 246° (WSW) 07:03:52 435.950
CUBESAT XI-V 24 Nov 06:59:19 07:03:57 57° 260° (W) 07:08:37 437.345
AIST 2 24 Nov 07:21:15 07:25:12 36° 245° (WSW) 07:29:06 435.215
Cubesat XI-IV 24 Nov 07:31:01 07:36:11 53° 288° (WNW) 07:41:19 437.490
AIST 1 24 Nov 07:35:01 07:39:25 85° 82° (E) 07:43:46
ISS 24 Nov 07:39:53 07:43:07 53° 222° (SW) 07:46:20 145.825
O/OREOS (USA 219) 24 Nov 08:05:30 08:08:30 17° 303° (WNW) 08:11:29 437.305
CUTE-I 24 Nov 08:13:53 08:17:57 23° 295° (WNW) 08:22:00 437.470
JAS-2 24 Nov 08:18:31 08:19:59 11° 309° (NW) 08:21:26 435.910
STRAND 1 24 Nov 08:22:15 08:22:50 10° 271° (W) 08:23:25 437.568
GONETS M04 24 Nov 08:32:11 08:40:40 56° 90° (E) 08:49:13
GOMX 1 24 Nov 08:45:18 08:47:09 13° 92° (E) 08:49:00 467.674
SEEDS 24 Nov 08:53:29 08:56:47 21° 94° (E) 09:00:04 437.485
HO-68 24 Nov 09:01:58 09:08:42 42° 99° (E) 09:15:21 435.675
BRITE-PL 24 Nov 09:02:04 09:05:39 28° 96° (E) 09:09:16 437.365/2234.400
DX 1 24 Nov 09:11:05 09:11:24 10° 90° (E) 09:11:44 434.975-435.025
TIGRISAT 24 Nov 09:13:44 09:15:08 11° 63° (ENE) 09:16:32 435.000
AAUSAT CUBESAT 2 24 Nov 09:14:13 09:17:50 27° 96° (E) 09:21:27 437.432
CANX-2 24 Nov 09:17:56 09:22:08 52° 100° (E) 09:26:20 2200.000
UNISAT 6 24 Nov 09:24:56 09:27:31 16° 66° (ENE) 09:30:06 437.425
COMPASS 1 24 Nov 09:27:44 09:31:49 44° 99° (E) 09:35:53 437.405
NANOSAT C BR1 24 Nov 09:28:06 09:29:38 12° 63° (ENE) 09:31:10 145.865
DELFI C3 24 Nov 09:30:21 09:33:05 17° 93° (E) 09:35:48 145.870
QB50P1 24 Nov 09:36:44 09:39:09 15° 65° (ENE) 09:41:33 145.935-145.965
DOVE 4 24 Nov 09:48:33 09:52:37 51° 100° (E) 09:56:46 437.250
ANTELSAT 24 Nov 09:52:04 09:55:50 31° 70° (ENE) 09:59:36 437.575/2403.000
CUTE 1.7 & AOD 2 24 Nov 09:52:51 09:57:07 66° 285° (WNW) 10:01:22 437.475
AISAT 24 Nov 09:56:35 09:57:15 10° 90° (E) 09:57:56 437.250
BUGSAT 1 24 Nov 09:57:00 10:00:11 21° 68° (ENE) 10:03:21 437.445
POPSAT HIP 1 24 Nov 09:59:55 10:03:29 26° 69° (ENE) 10:07:03 437.405
UKube-1 24 Nov 10:10:13 10:14:27 50° 100° (E) 10:18:38 .
FUNcube-1 24 Nov 10:10:19 10:13:48 24° 96° (E) 10:17:19 145.935
GOMX 1 24 Nov 10:21:34 10:25:32 46° 287° (WNW) 10:29:35 467.674
Oscar 11 24 Nov 10:22:56 10:27:18 85° 103° (ESE) 10:31:39 145.826/435.025
CUBEBUG 2 24 Nov 10:26:30 10:30:38 52° 100° (E) 10:34:52 437.445
SEEDS 24 Nov 10:28:53 10:32:37 30° 289° (WNW) 10:36:21 437.485
GONETS M04 24 Nov 10:30:20 10:37:52 31° 290° (WNW) 10:45:30
UWE-3 24 Nov 10:30:55 10:35:02 51° 100° (E) 10:39:14 435.000/436.395/437.385
POLYITAN 1 24 Nov 10:31:30 10:35:42 61° 75° (ENE) 10:39:55 437.675
QB50P2 24 Nov 10:34:18 10:38:32 66° 75° (ENE) 10:42:46 145.880/145.840
CINEMA 3 24 Nov 10:39:06 10:43:16 68° 284° (WNW) 10:47:34 145.822/145.860
BRITE-PL 24 Nov 10:40:57 10:44:03 21° 292° (WNW) 10:47:10 437.365/2234.400
DUCHIFAT 1 24 Nov 10:41:37 10:45:53 80° 76° (ENE) 10:50:09 145.980
DX 1 24 Nov 10:43:45 10:48:04 65° 286° (WNW) 10:52:20 434.975-435.025
TIGRISAT 24 Nov 10:47:09 10:51:22 61° 259° (W) 10:55:36 435.000
HO-68 24 Nov 10:49:50 10:56:15 37° 296° (WNW) 11:02:39 435.675
AAUSAT CUBESAT 2 24 Nov 10:50:01 10:53:24 24° 291° (WNW) 10:56:46 437.432
CANX-2 24 Nov 10:55:31 10:57:38 14° 295° (WNW) 10:59:44 2200.000
ESTCUBE 1 24 Nov 10:57:18 11:00:36 20° 94° (E) 11:03:52 437.505/2401.250
UNISAT 6 24 Nov 10:59:54 11:03:58 42° 261° (W) 11:08:03 437.425
NANOSAT C BR1 24 Nov 11:00:47 11:05:00 61° 259° (W) 11:09:13 145.865
COMPASS 1 24 Nov 11:04:42 11:07:11 15° 294° (WNW) 11:09:39 437.405
DELFI C3 24 Nov 11:04:42 11:08:30 35° 288° (WNW) 11:12:16 145.870
VELOX 1 24 Nov 11:04:51 11:09:15 64° 101° (ESE) 11:13:37 145.980
HUMSAT D 24 Nov 11:08:16 11:12:26 70° 101° (ESE) 11:16:37 437.325/437.525
50 SAT 24 Nov 11:10:12 11:14:14 60° 101° (E) 11:18:15 437.505
ZACube-1 24 Nov 11:10:24 11:14:36 65° 285° (WNW) 11:18:51 437.345
QB50P1 24 Nov 11:10:32 11:14:39 46° 261° (W) 11:18:46 145.935-145.965
DOVE 4 24 Nov 11:28:12 11:29:59 13° 295° (WNW) 11:31:47 437.250
ANTELSAT 24 Nov 11:29:29 11:32:41 20° 266° (W) 11:35:53 437.575/2403.000
AISAT 24 Nov 11:29:55 11:34:19 66° 286° (WNW) 11:38:41 437.250
BUGSAT 1 24 Nov 11:31:38 11:35:28 32° 263° (W) 11:39:18 437.445
POPSAT HIP 1 24 Nov 11:35:50 11:39:20 25° 264° (W) 11:42:50 437.405
TISAT 1 24 Nov 11:43:35 11:45:47 14° 92° (E) 11:47:58 437.305
FUNcube-1 24 Nov 11:46:35 11:50:05 26° 290° (WNW) 11:53:39 145.935
SPROUT 24 Nov 11:47:23 11:49:35 14° 92° (E) 11:51:46 437.525
UKube-1 24 Nov 11:47:49 11:50:11 15° 296° (WNW) 11:52:32 .
CUBEBUG 1 24 Nov 11:50:01 11:54:24 72° 102° (ESE) 11:58:43 437.445
SO-50 24 Nov 11:57:21 12:00:01 15° 41° (NE) 12:02:43 436.795
CUBEBUG 2 24 Nov 12:04:58 12:06:56 13° 295° (WNW) 12:08:55 437.445
UWE-3 24 Nov 12:09:05 12:11:11 14° 295° (WNW) 12:13:17 435.000/436.395/437.385
POLYITAN 1 24 Nov 12:11:21 12:12:02 10° 270° (W) 12:12:43 437.675
Oscar 19 24 Nov 12:19:21 12:23:17 23° 65° (ENE) 12:27:13 437.125/150
ESTCUBE 1 24 Nov 12:33:24 12:37:35 37° 289° (WNW) 12:41:44 437.505/2401.250
VELOX 1 24 Nov 12:43:34 12:45:17 12° 297° (WNW) 12:47:00 145.980
50 SAT 24 Nov 12:48:05 12:49:02 11° 296° (WNW) 12:49:59 437.505
YUBILEINY 24 Nov 12:54:48 13:01:23 23° 66° (ENE) 13:07:54 435.215
ITAMSAT 1 24 Nov 13:07:53 13:12:09 26° 66° (ENE) 13:16:26 435.822/435.867
ITUPSAT 1 24 Nov 13:13:46 13:17:23 21° 94° (E) 13:20:58 437.325
TISAT 1 24 Nov 13:17:50 13:21:51 44° 287° (WNW) 13:25:50 437.305
SPROUT 24 Nov 13:21:48 13:25:55 47° 287° (WNW) 13:30:00 437.525
SWISSCUBE 24 Nov 13:25:00 13:29:13 30° 97° (E) 13:33:24 437.505
AUBIESAT-1 24 Nov 13:27:44 13:32:17 36° 102° (ESE) 13:36:42 437.475
CUBEBUG 1 24 Nov 13:29:22 13:30:09 10° 298° (WNW) 13:30:56 437.445
Gurwin Techsat 1B 24 Nov 13:29:29 13:33:39 24° 65° (ENE) 13:37:50 435.225
M-CUBED/EXP-1 PRIME 24 Nov 13:31:32 13:36:15 44° 103° (ESE) 13:40:52 437.505
SO-50 24 Nov 13:36:21 13:41:16 89° 59° (ENE) 13:46:10 436.795
AO-7 24 Nov 13:39:44 13:43:07 13° 46° (NE) 13:46:29 29.400- 29.500
BEESAT 24 Nov 13:56:06 14:00:51 59° 101° (E) 14:05:34 436.000
Oscar 19 24 Nov 13:57:32 14:02:20 41° 262° (W) 14:07:10 437.125/150
CUSAT 1 24 Nov 13:58:29 14:01:10 40° 281° (W) 14:03:40 437.405
DANDE 24 Nov 14:16:35 14:19:10 27° 282° (WNW) 14:21:31 436.750
STARS 24 Nov 14:16:53 14:18:40 12° 91° (E) 14:20:26 437.465
ITAMSAT 1 24 Nov 14:46:39 14:51:27 37° 262° (W) 14:56:16 435.822/435.867
YUBILEINY 24 Nov 14:50:21 14:59:01 73° 267° (W) 15:07:38 435.215
ITUPSAT 1 24 Nov 14:50:56 14:55:23 39° 290° (WNW) 14:59:49 437.325
KKS-1 24 Nov 14:51:41 14:55:58 46° 100° (E) 15:00:14 437.445
JAS-2 24 Nov 14:59:11 15:01:48 12° 52° (NE) 15:04:25 435.910
SWISSCUBE 24 Nov 15:02:56 15:06:58 27° 292° (WNW) 15:10:58 437.505
AUBIESAT-1 24 Nov 15:03:00 15:07:03 26° 297° (WNW) 15:11:03 437.475
HORYU 2 24 Nov 15:04:52 15:09:17 88° 76° (ENE) 15:13:45 437.375
M-CUBED/EXP-1 PRIME 24 Nov 15:07:09 15:10:58 23° 299° (WNW) 15:14:44 437.505
Gurwin Techsat 1B 24 Nov 15:08:20 15:13:20 42° 262° (W) 15:18:23 435.225
PHONESAT 2.4 24 Nov 15:08:38 15:11:28 21° 148° (SSE) 15:14:19 2401.200-2431.200
RS-15 24 Nov 15:16:31 15:24:55 26° 103° (ESE) 15:33:14 29.354- 29.394
AO-7 24 Nov 15:26:06 15:34:11 61° 67° (ENE) 15:42:19 29.400- 29.500
VERMONT LUNAR 24 Nov 15:26:17 15:29:37 35° 154° (SSE) 15:32:58 437.305
BEESAT 24 Nov 15:35:31 15:38:11 15° 297° (WNW) 15:40:50 436.000
STARS 24 Nov 15:51:10 15:55:28 55° 286° (WNW) 15:59:45 437.465
MaSat-1 24 Nov 16:15:26 16:18:21 40° 297° (WNW) 16:21:00 437.345
KKS-1 24 Nov 16:29:32 16:32:14 16° 295° (WNW) 16:34:56 437.445
O/OREOS (USA 219) 24 Nov 16:35:22 16:39:50 74° 68° (ENE) 16:44:18 437.305
JAS-2 24 Nov 16:37:47 16:45:09 59° 70° (ENE) 16:52:50 435.910
PHONESAT 2.4 24 Nov 16:46:13 16:49:56 74° 164° (SSE) 16:53:39 2401.200-2431.200
YUBILEINY 24 Nov 16:51:20 16:54:08 12° 286° (WNW) 16:56:56 435.215
VERMONT LUNAR 24 Nov 17:04:20 17:07:58 82° 350° (N) 17:11:37 437.305
Cubesat XI-IV 24 Nov 17:12:57 17:17:28 29° 67° (ENE) 17:22:00 437.490
AO-7 24 Nov 17:20:30 17:27:22 29° 264° (W) 17:34:18 29.400- 29.500
MOZHAYETS 4 24 Nov 17:20:35 17:25:08 51° 100° (E) 17:29:39
RS-15 24 Nov 17:25:03 17:36:02 78° 303° (WNW) 17:47:03 29.354- 29.394
PRISM 24 Nov 17:34:43 17:36:01 11° 91° (E) 17:37:20 437.425
CUTE-I 24 Nov 17:53:52 17:59:11 66° 73° (ENE) 18:04:30 437.470
JAS-2 24 Nov 18:24:09 18:30:28 29° 268° (W) 18:37:05 435.910
PHONESAT 2.4 24 Nov 18:25:06 18:28:49 70° 1° (N) 18:32:31 2401.200-2431.200
VERMONT LUNAR 24 Nov 18:42:57 18:46:35 76° 7° (N) 18:50:13 437.305
GONETS M04 24 Nov 18:44:25 18:51:31 26° 68° (ENE) 18:58:31
STRAND 1 24 Nov 18:50:05 18:54:34 30° 97° (E) 18:59:01 437.568
Cubesat XI-IV 24 Nov 18:52:31 18:57:24 35° 263° (W) 19:02:19 437.490
CUBESAT XI-V 24 Nov 18:57:32 19:01:54 38° 98° (E) 19:06:13 437.345
MOZHAYETS 4 24 Nov 18:59:07 19:01:55 16° 295° (WNW) 19:04:43
PRISM 24 Nov 19:07:45 19:11:55 56° 286° (WNW) 19:16:02 437.425
HO-68 24 Nov 19:30:01 19:35:57 29° 61° (ENE) 19:41:54 435.675
CUTE-I 24 Nov 19:36:49 19:39:41 15° 269° (W) 19:42:34 437.470
RS-15 24 Nov 19:41:49 19:50:30 26° 330° (NNW) 19:59:19 29.354- 29.394
SEEDS 24 Nov 19:46:20 19:48:32 14° 65° (ENE) 19:50:46 437.485
PCSat 24 Nov 19:52:20 19:57:23 42° 111° (ESE) 20:02:29 145.827
GOMX 1 24 Nov 19:52:33 19:55:22 16° 66° (ENE) 19:58:05 467.674
AIST 1 24 Nov 20:03:22 20:07:38 53° 94° (E) 20:11:56
PHONESAT 2.4 24 Nov 20:03:58 20:07:40 69° 198° (SSW) 20:11:22 2401.200-2431.200
AAUSAT CUBESAT 2 24 Nov 20:05:41 20:08:24 17° 67° (ENE) 20:11:08 437.432
CANX-2 24 Nov 20:10:25 20:14:11 33° 71° (ENE) 20:17:58 2200.000
BRITE-PL 24 Nov 20:11:32 20:16:06 35° 72° (ENE) 20:20:23 437.365/2234.400
COMPASS 1 24 Nov 20:18:59 20:22:30 27° 70° (ENE) 20:26:03 437.405
DELFI C3 24 Nov 20:21:01 20:21:25 10° 63° (ENE) 20:21:48 145.870
VERMONT LUNAR 24 Nov 20:21:32 20:25:00 43° 204° (SSW) 20:28:27 437.305
STRAND 1 24 Nov 20:29:16 20:33:40 30° 292° (WNW) 20:38:03 437.568
CUBESAT XI-V 24 Nov 20:35:38 20:39:04 21° 294° (WNW) 20:42:28 437.345
BEESAT 3 24 Nov 20:36:23 20:40:19 48° 117° (ESE) 20:44:19 437.485
GONETS M04 24 Nov 20:40:17 20:49:00 67° 268° (W) 20:57:38
CUTE 1.7 & AOD 2 24 Nov 20:44:47 20:48:58 76° 76° (ENE) 20:53:13 437.475
BEESAT 2 24 Nov 20:50:27 20:54:30 63° 118° (ESE) 20:58:38 435.950
DOVE 4 24 Nov 20:53:17 20:57:47 49° 74° (ENE) 21:02:03 437.250
UKube-1 24 Nov 21:04:29 21:08:30 38° 71° (ENE) 21:12:33 .
FUNcube-1 24 Nov 21:06:26 21:09:17 18° 67° (ENE) 21:12:06 145.935
HO-68 24 Nov 21:16:15 21:23:14 55° 259° (WSW) 21:30:17 435.675
Oscar 11 24 Nov 21:16:42 21:20:54 56° 74° (ENE) 21:25:07 145.826/435.025
AIST 2 24 Nov 21:18:15 21:22:24 61° 118° (ESE) 21:26:38 435.215
SEEDS 24 Nov 21:19:56 21:23:58 47° 261° (W) 21:28:02 437.485
CUBEBUG 2 24 Nov 21:24:18 21:28:17 39° 72° (ENE) 21:32:12 437.445
UWE-3 24 Nov 21:27:40 21:31:34 36° 72° (ENE) 21:35:25 435.000/436.395/437.385
GOMX 1 24 Nov 21:28:23 21:33:09 52° 260° (W) 21:37:37 467.674
PCSat 24 Nov 21:36:20 21:40:56 28° 309° (NW) 21:45:33 145.827
DX 1 24 Nov 21:38:09 21:42:33 86° 257° (WSW) 21:46:57 434.975-435.025
AAUSAT CUBESAT 2 24 Nov 21:39:57 21:43:47 37° 262° (W) 21:47:40 437.432
CINEMA 3 24 Nov 21:39:58 21:44:26 84° 257° (WSW) 21:48:44 145.822/145.860
PHONESAT 2.4 24 Nov 21:43:25 21:46:06 19° 213° (SSW) 21:48:46 2401.200-2431.200
AIST 1 24 Nov 21:43:43 21:45:39 13° 290° (WNW) 21:47:35
CANX-2 24 Nov 21:47:11 21:50:11 19° 266° (W) 21:53:14 2200.000
BRITE-PL 24 Nov 21:50:31 21:54:37 24° 264° (W) 21:58:30 437.365/2234.400
DELFI C3 24 Nov 21:52:07 21:56:09 65° 259° (W) 22:00:13 145.870
COMPASS 1 24 Nov 21:54:56 21:58:13 22° 265° (W) 22:01:31 437.405
ESTCUBE 1 24 Nov 21:56:48 21:59:46 17° 65° (ENE) 22:02:44 437.505/2401.250
50 SAT 24 Nov 21:58:29 22:02:07 33° 71° (ENE) 22:05:46 437.505
HUMSAT D 24 Nov 21:59:49 22:03:44 42° 73° (ENE) 22:07:38 437.325/437.525
RS-15 24 Nov 22:01:40 22:08:28 18° 7° (N) 22:15:23 29.354- 29.394
VELOX 1 24 Nov 22:01:44 22:06:03 50° 73° (ENE) 22:10:24 145.980
ZACube-1 24 Nov 22:05:35 22:09:50 86° 77° (ENE) 22:14:01 437.345
BEESAT 3 24 Nov 22:15:59 22:18:49 18° 314° (NW) 22:21:40 437.485
POLYITAN 1 24 Nov 22:21:14 22:22:18 11° 91° (E) 22:23:22 437.675
QB50P2 24 Nov 22:23:25 22:24:57 12° 91° (E) 22:26:28 145.880/145.840
AISAT 24 Nov 22:26:56 22:31:25 83° 256° (WSW) 22:35:56 437.250
DUCHIFAT 1 24 Nov 22:29:49 22:32:00 14° 92° (E) 22:34:10 145.980
BEESAT 2 24 Nov 22:30:50 22:33:13 15° 316° (NW) 22:35:37 435.950
DOVE 4 24 Nov 22:33:10 22:35:45 15° 267° (W) 22:38:17 437.250
TISAT 1 24 Nov 22:37:22 22:38:08 10° 63° (ENE) 22:38:54 437.305
TIGRISAT 24 Nov 22:40:11 22:44:01 28° 97° (E) 22:47:55 435.000
FUNcube-1 24 Nov 22:41:29 22:45:23 36° 262° (W) 22:49:15 145.935
UKube-1 24 Nov 22:41:50 22:44:48 18° 266° (W) 22:47:46 .
GONETS M04 24 Nov 22:42:47 22:43:57 10° 287° (WNW) 22:45:08
SPROUT 24 Nov 22:42:47 22:43:34 10° 63° (ENE) 22:44:20 437.525
CUBEBUG 1 24 Nov 22:45:14 22:49:33 53° 73° (ENE) 22:53:53 437.445
NANOSAT C BR1 24 Nov 22:48:00 22:51:22 23° 95° (E) 22:54:42 145.865
UNISAT 6 24 Nov 22:52:47 22:56:59 40° 99° (E) 23:01:14 437.425
Oscar 11 24 Nov 22:55:56 22:57:24 12° 269° (W) 22:58:53 145.826/435.025
QB50P1 24 Nov 22:57:26 23:01:08 29° 97° (E) 23:04:49 145.935-145.965
AIST 2 24 Nov 22:58:49 23:01:26 16° 316° (NW) 23:04:05 435.215
CUBEBUG 2 24 Nov 23:02:27 23:05:08 16° 267° (W) 23:07:48 437.445
UWE-3 24 Nov 23:05:25 23:08:14 17° 266° (W) 23:11:01 435.000/436.395/437.385
DANDE 24 Nov 23:14:51 23:16:27 12° 74° (ENE) 23:18:10 436.750
BUGSAT 1 24 Nov 23:15:17 23:19:06 37° 98° (E) 23:22:51 437.445
ANTELSAT 24 Nov 23:21:12 23:25:39 84° 103° (ESE) 23:30:12 437.575/2403.000
POPSAT HIP 1 24 Nov 23:21:42 23:25:52 57° 101° (E) 23:30:00 437.405
ESTCUBE 1 24 Nov 23:31:55 23:36:16 45° 261° (W) 23:40:39 437.505/2401.250
50 SAT 24 Nov 23:34:51 23:37:32 17° 266° (W) 23:40:13 437.505
HUMSAT D 24 Nov 23:37:33 23:39:45 14° 268° (W) 23:41:57 437.325/437.525
VELOX 1 24 Nov 23:40:33 23:42:55 14° 268° (W) 23:45:17 145.980
POLYITAN 1 24 Nov 23:54:27 23:58:37 58° 286° (WNW) 00:02:45 437.675
QB50P2 24 Nov 23:57:03 00:01:11 53° 286° (WNW) 00:05:18 145.880/145.840
DUCHIFAT 1 25 Nov 00:04:05 00:08:07 45° 287° (WNW) 00:12:07 145.980
TISAT 1 25 Nov 00:09:07 00:13:23 70° 258° (WSW) 00:17:39 437.305
SPROUT 25 Nov 00:14:44 00:19:03 71° 258° (WSW) 00:23:22 437.525
RS-15 25 Nov 00:15:28 00:25:33 37° 40° (NE) 00:35:57 29.354- 29.394
AUBIESAT-1 25 Nov 00:16:33 00:20:14 36° 65° (ENE) 00:24:15 437.475
TIGRISAT 25 Nov 00:17:04 00:20:40 25° 291° (WNW) 00:24:19 435.000
ITUPSAT 1 25 Nov 00:19:58 00:23:40 23° 66° (ENE) 00:27:23 437.325
ISS 25 Nov 00:20:29 00:23:46 88° 140° (SE) 00:27:04 145.825
M-CUBED/EXP-1 PRIME 25 Nov 00:20:42 00:24:30 44° 67° (ENE) 00:28:40 437.505
NANOSAT C BR1 25 Nov 00:23:38 00:27:13 28° 290° (WNW) 00:30:48 145.865
CUBEBUG 1 25 Nov 00:24:04 00:26:13 13° 269° (W) 00:28:23 437.445
UNISAT 6 25 Nov 00:30:26 00:33:29 19° 293° (WNW) 00:36:35 437.425
SWISSCUBE 25 Nov 00:30:50 00:35:03 32° 69° (ENE) 00:39:17 437.505
QB50P1 25 Nov 00:33:38 00:36:52 22° 292° (WNW) 00:40:07 145.935-145.965
CUSAT 1 25 Nov 00:35:16 00:39:53 89° 81° (E) 00:46:09 437.405
BUGSAT 1 25 Nov 00:51:44 00:54:18 16° 294° (WNW) 00:56:50 437.445
DANDE 25 Nov 00:55:26 00:59:52 70° 262° (W) 01:05:54 436.750
POPSAT HIP 1 25 Nov 00:59:35 01:01:17 12° 296° (WNW) 01:02:59 437.405
BEESAT 25 Nov 01:01:37 01:06:19 60° 73° (ENE) 01:11:03 436.000
STARS 25 Nov 01:14:44 01:15:41 11° 62° (ENE) 01:16:38 437.465
JUGNU 25 Nov 01:15:31 01:15:59 10° 174° (S) 01:16:28 437.505
KKS-1 25 Nov 01:49:08 01:53:14 37° 71° (ENE) 01:57:20 437.445
AUBIESAT-1 25 Nov 01:52:40 01:55:26 18° 264° (W) 01:58:21 437.475
YUBILEINY 25 Nov 01:54:59 02:01:57 27° 82° (E) 02:08:54 435.215
MaSat-1 25 Nov 01:55:18 01:57:17 24° 249° (WSW) 01:59:20 437.345
ITUPSAT 1 25 Nov 01:56:52 02:01:19 37° 262° (W) 02:05:48 437.325
M-CUBED/EXP-1 PRIME 25 Nov 01:57:39 01:59:53 15° 265° (W) 02:02:14 437.505
ISS 25 Nov 01:58:32 02:00:47 17° 339° (NNW) 02:03:03 145.825
SWISSCUBE 25 Nov 02:08:54 02:12:53 26° 264° (W) 02:16:54 437.505
Oscar 19 25 Nov 02:09:44 02:14:54 76° 103° (ESE) 02:20:04 437.125/150
